Other Public Products
Issued by NWS Grand Forks, ND

Home | Current Version | Previous Version | Text Only | Print | Product List | Glossary Off
Versions: 1 2 3 4 5 6 7 8 9 10 11 12 13 14 15 16 17 18 19 20 21 22 23 24 25 26 27 28 29 30 31 32 33 34 35 36 37 38 39 40 41 42 43 44 45 46 47 48 49 50

000
FPUS83 KFGF 230431
OPUFGF
PRAIRIE TO PINES WEATHER ROUNDUP
NATIONAL WEATHER SERVICE EASTERN NORTH DAKOTA/GRAND FORKS ND
1100 PM CDT MON AUG 22 2016

 **SATELLITE DATA USED TO AUGMENT SKY COVER AT AUTOMATED STATIONS**
 *****  WEATHER ACROSS EASTERN NORTH DAKOTA  *****

CITY           SKY/WX    TMP DP  RH WIND       PRES   REMARKS
GRAND FORKS    PTCLDY    71  67  87 SE8       29.67S
GRAND FORKS AF CLEAR     71  67  88 S7        29.68S
GRAND CITY NWS NOT AVBL
BUXTON           N/A     73  72  97 SE9         N/A
DEVILS LAKE    CLEAR     73  69  87 SE13      29.67S
FARGO          CLEAR     78  68  71 S17G23    29.69S
WAHPETON ARPT  CLEAR     72  63  73 SE10      29.73S
$$

 *****  WEATHER ACROSS CENTRAL AND WESTERN NORTH DAKOTA  *****

CITY           SKY/WX    TMP DP  RH WIND       PRES   REMARKS
JAMESTOWN      CLEAR     75  67  76 SE13      29.64F
BISMARCK       CLOUDY    74  69  85 E8        29.57S
MINOT          CLOUDY    75  67  76 SE10      29.60S
MINOT AFB      CLOUDY    71  66  84 SE8       29.59S
GARRISON         N/A     74  68  81 E8        29.60S
WILLISTON      CLEAR     75  33  21 NE12      29.63R
DICKINSON      CLEAR     68  60  75 S3        29.62R
HETTINGER      CLEAR     64  56  75 CALM      29.65R
$$

 *****  OTHER OBSERVATIONS NORTHEAST NORTH DAKOTA  *****

CITY           SKY/WX    TMP DP  RH WIND       PRES   REMARKS
WALHALLA       FAIR      70  70 100 SE8       29.67F
LANGDON        CLOUDY    68  68 100 SE9       29.69F
CAVALIER       FAIR      68  64  88 SE3       29.68S
GRAFTON        FAIR      66  66 100 SE6       29.69F
CANDO          FAIR      68  68 100 SE8       29.68S
FORT TOTTEN      N/A     72  66  82 SE7       29.95S
ROLLA          FAIR      63  63 100 S5        29.69S
RUGBY          NOT AVBL
 ***** THE ABOVE OBSERVATIONS ARE NON NWS ARE NOT QUALITY
        CONTROLLED AND MAY MIS-REPORT RAIN FOR SNOW...
$$

 *****  OTHER OBSERVATIONS SOUTHEAST NORTH DAKOTA *****

CITY           SKY/WX    TMP DP  RH WIND       PRES   REMARKS
COOPERSTOWN    NOT AVBL
VALLEY CITY    FAIR      75  73  94 SE9       29.69S
OAKES            N/A    N/A N/A N/A MISG        N/A
GWINNER        FAIR      77  66  69 S16G22    29.69S
SHEYENNE NWR     N/A     72  67  85 SE7       29.95S
BUFFALO          N/A     71  68  90 SE10        N/A
WYNDMERE         N/A     72  68  88 SE3         N/A
 ***** THE ABOVE OBSERVATIONS ARE NON NWS ARE NOT QUALITY
       CONTROLLED AND MAY MIS-REPORT RAIN FOR SNOW...
$$

  *****  WEATHER ACROSS NORTHERN MINNESOTA  *****

CITY           SKY/WX    TMP DP  RH WIND       PRES   REMARKS
FLAG ISLAND    CLEAR     72  68  88 CALM      29.75R FOG
WARROAD        CLEAR     66  63  88 SE5       29.76S FOG
ROSEAU         CLEAR     66  63  88 SE5       29.74S
HALLOCK        CLEAR     70  66  88 SE8       29.69S
THF RVR FALLS  CLEAR     68  65  90 SE8       29.74S
HALSTAD          N/A     73  68  86 SE10        N/A
FOSSTON        CLEAR     70  64  83 S8        29.75S
BAUDETTE       CLEAR     68  64  87 S8        29.77R
WASKISH        CLEAR     66  63  88 SE3       29.78S
CROOKSTON      CLEAR     70  66  88 SE9       29.70F
$$
  *****  WEATHER ACROSS CENTRAL AND WEST MINNESOTA  *****

CITY           SKY/WX    TMP DP  RH WIND       PRES   REMARKS
BEMIDJI        CLEAR     70  66  88 S6        29.78S
PARK RAPIDS    CLEAR     73  66  78 SE10      29.80S
WADENA         CLEAR     70  63  78 S8        29.81R
DETROIT LAKES  CLEAR     73  66  78 S12       29.78S
MOORHEAD       CLEAR     75  66  73 S14       29.71S
FERGUS FALLS     N/A     73  64  73 S15       29.78R
ELBOW LAKE     FAIR      71  65  81 S16       29.79R
MORRIS MN      CLOUDY    72  64  78 S14       29.79S
STAPLES        CLEAR     73  63  68 S13G21    29.82S
WHEATON        CLEAR     75  66  73 SE13G18   29.75S
$$
  *****  WEATHER ELSEWHERE ACROSS MINNESOTA  *****

CITY           SKY/WX    TMP DP  RH WIND       PRES   REMARKS
DULUTH         CLEAR     71  61  70 SW12      29.89R
INTRNTL FALLS  CLEAR     66  62  87 VRB3      29.79S
ELY            PTCLDY    70  61  73 SW8       29.87R
CLOQUET        CLEAR     70  59  68 S9G17     29.89S
BRAINERD       CLEAR     70  64  81 S6        29.85R
HIBBING        CLEAR     68  63  84 S7        29.85S
ALEXANDRIA     CLOUDY    74  63  68 S22G32    29.83R
SAINT CLOUD    CLEAR     72  63  73 S16G31    29.88R
MINNEAPOLIS    CLEAR     75  59  57 S16G24    29.93R
$$

  *****  WEATHER ACROSS SOUTH DAKOTA  *****

CITY           SKY/WX    TMP DP  RH WIND       PRES   REMARKS
SIOUX FALLS    PTCLDY    75  61  61 S16       29.88R
BROOKINGS      CLOUDY    72  62  71 S17G25    29.85
WATERTOWN      CLOUDY    74  64  71 S20G26    29.80S
HURON          CLOUDY    76  63  64 S18G26    29.74R
SISSETON         N/A     78  64  61 S15G23    29.71R
ABERDEEN       CLEAR     77  64  64 S21G31    29.68R
MITCHELL       CLOUDY    76  63  64 S21G26    29.79R
PIERRE         CLOUDY    80  59  48 SE13      29.65R
MOBRIDGE       PTCLDY    82  62  50 S12       29.58R
RAPID CITY     CLOUDY    60  48  64 CALM      29.69S
$$

  *****  SOME WEATHER IN NEARBY STATES *****

CITY           SKY/WX    TMP DP  RH WIND       PRES   REMARKS
GLASGOW MT     CLOUDY    71  32  23 NW15      29.71R
GREAT FALLS MT CLOUDY    63  24  22 W18       29.84R
CHEYENNE WY    CLOUDY    67  37  33 W12       30.02F
SCOTTSBLUFF NE CLOUDY    66  58  75 E7        29.84F
OMAHA NE       MOCLDY    73  60  63 S16       29.99S
DES MOINES IA  CLOUDY    70  60  70 S9        30.05S
DAVENPORT IA   CLEAR     67  59  75 S8        30.14R
CHICAGO IL     CLEAR     68  57  68 S9        30.17R
EAU CLAIRE WI  CLEAR     71  61  70 S12       29.98S
LA CROSSE WI   CLEAR     72  67  84 S12       30.03S
$$

  *****  SOME NATIONAL WEATHER *****

CITY           SKY/WX    TMP DP  RH WIND       PRES   REMARKS
LA GUARDIA NY  CLEAR     71  48  43 N7        30.20R
RALEIGH NC     PTCLDY    68  62  81 CALM      30.21R
ATLANTA GA     MOCLDY    78  67  68 CALM      30.20R
NEW ORLEANS LA MOCLDY    82  74  76 CALM      30.15S
OKLAHOMA CITY  CLOUDY    76  72  87 S12       30.06R
ALBUQUERQUE NM CLOUDY    65  59  81 E5        30.18R
SALT LAKE CITY MOCLDY    83  30  14 W6        29.93R
LOS ANGELES CA CLEAR     66  61  84 W8        29.92S
BOISE ID       PTCLDY    73  27  18 N7        29.90R
SEATTLE WA     PTCLDY    65  47  52 N8        30.11R
$$

*** WEATHER ACROSS MANITOBA...SASKATCHEWAN AND ONTARIO ***
                ***ONTARIO***

CITY           SKY/WX    TMP DP  RH WIND       PRES   REMARKS
GERALDTON      MOCLDY    61  57  88 S8        29.84F
THUNDER BAY    MOCLDY    68  61  77 VRB2      29.85S
SIOUX LOOKOUT  CLEAR     66  63  88 S6        29.77R
TORONTO        CLEAR     64  48  55 W3        30.19S
BIG TROUT LK   MOCLDY    59  52  77 N5        29.78R
PICKLE LAKE    NOT AVBL
DRYDEN         CLEAR     70  63  78 SW10      29.78R
KENORA         CLEAR     72  64  78 S8        29.78R
$$
                *** MANITOBA***

CITY           SKY/WX    TMP DP  RH WIND       PRES   REMARKS
BRANDON        PTCLDY    72  63  73 SE9       29.64S
DAUPHIN        MOCLDY    70  61  73 SE10      29.61F
ISLAND LAKE    PTCLDY    64  54  68 E3        29.81R
PILOT MOUND      N/A     66  63  88 SE7         N/A
THE PAS        PTCLDY    66  52  59 E13G20    29.73S
THOMPSON       CLOUDY    55  46  71 NE2       29.86R
WINNIPEG       CLEAR     73  64  73 S10       29.67S
LYNN LAKE      CLOUDY    57  45  62 MISG      29.86R
CHURCHILL      MOCLDY    52  50  93 W5        29.82R
GILLAM         CLEAR     54  46  76 SW3       29.83R
$$
                ***SASKATCHEWAN***

CITY           SKY/WX    TMP DP  RH WIND       PRES   REMARKS
ESTEVAN        CLEAR     68  50  52 N6        29.61F
KINDERSLEY     MOCLDY    54  45  71 SW8G17    29.66R
LLOYDMINSTER   CLOUDY    54  48  82 VRB5      29.61R
PRINCE ALBERT  MOCLDY    63  57  82 E9        29.60R
REGINA         CLOUDY    63  43  48 NW3       29.65R
YORKTON        MOCLDY    68  63  83 SE10      29.59R  C1F1C2F2C3F3C4F4C5F5C6F6C7F7C8F8C9F9CaFaCbFbCcFcCdFdCe!



USA.gov is the U.S. government's official web portal to all federal, state and local government web resources and services.